Location: Finney State Fishing Lake and Wildlife Area
(38.1834°N, 100.3310°W)
Time: 03:09:37
(UTC+00:00)

Tiangong - Pass Details

Date: 28 November 2022
Orbit: 383 x 386 km, 41.5° (Epoch: 03 February)

Event Time Altitude Azimuth Distance (km) Brightness Sun altitude
Rises 00:29:09 0° 204° (SSW) 2,240 2.4 -13.0°
Reaches altitude 10° 00:31:57 10° 176° (S) 1,394 0.8 -13.5°
Maximum altitude 00:33:37 14° 144° (SE) 1,202 0.2 -13.8°
Enters shadow 00:34:16 13° 130° (SE) 1,234 0.1 -13.9°
